Regional Weather Roundup
Issued by NWS

Home | Current Version | Previous Version | Graphics & Text | Print | Product List | Glossary On
Versions: 1 2 3 4 5 6 7 8 9 10 11 12 13 14 15 16 17 18 19 20 21 22 23 24 25 26 27 28 29 30 31 32 33 34 35 36 37 38 39 40 41 42 43 44 45 46 47 48 49 50
507
ASUS43 KDMX 270806
RWRIA

WEATHER ROUNDUP FOR IOWA
NATIONAL WEATHER SERVICE DES MOINES IA
300 AM CDT THU APR 27 2017

NOTE: "FAIR" INDICATES FEW OR NO CLOUDS BELOW 12,000 FEET WITH NO
SIGNIFICANT WEATHER AND/OR OBSTRUCTIONS TO VISIBILITY.

* - THESE STATIONS ARE NOT NWS STATIONS...THUS NOT UNDER NWS
QUALITY CONTROL.  THEY ALSO DO NOT REPORT WEATHER SUCH
AS PRECIPITATION OR FOG.

IAZ001>003-012>014-020>022-031>034-043>046-270900-
   NORTHWEST IOWA

CITY           SKY/WX    TMP DP  RH WIND       PRES   REMARKS
CARROLL *      CLOUDY    36  32  87 NW14G20   29.60F WCI  27
DENISON *      CLOUDY    34  30  86 NW13      29.63F WCI  25
LE MARS *      CLOUDY    34  28  80 NW14      29.65F WCI  24
SHELDON *      CLOUDY    30  27  86 NW18      29.61F WCI  18
SIOUX CITY     CLOUDY    34  28  79 NW15      29.65F WCI  24
SPENCER        CLOUDY    31  27  85 NW15      29.60F WCI  20
STORM LAKE *   CLOUDY    32  28  86 NW20      29.60F WCI  20
$$

IAZ055>058-069>071-079>083-090>094-270900-
   SOUTHWEST IOWA

CITY           SKY/WX    TMP DP  RH WIND       PRES   REMARKS
ATLANTIC *     CLOUDY    37  30  75 NW10      29.62F WCI  30
CLARINDA *     CLOUDY    41  32  70 NW10      29.65F
COUNCIL BLFS * CLOUDY    37  34  87 NW9       29.64F WCI  31
CRESTON *      CLOUDY    37  30  75 NW20G25   29.61S WCI  27
HARLAN  *      CLOUDY    36  30  80 NW17G25   29.65F WCI  25
LAMONI         CLOUDY    39  34  82 NW12      29.60S WCI  32
RED OAK *      CLOUDY    39  32  75 NW9       29.63F WCI  33
SHENANDOAH *   CLOUDY    41  32  70 W7        29.65F
$$

IAZ047>049-059>061-072>074-084-270900-
   CENTRAL IOWA

CITY           SKY/WX    TMP DP  RH WIND       PRES   REMARKS
AMES           CLOUDY    36  32  85 NW16G24   29.57F WCI  26
ANKENY *       CLOUDY    37  32  81 NW12G18   29.59S WCI  30
BOONE *        CLOUDY    36  32  87 NW14G23   29.57F WCI  27
CHARITON *     CLOUDY    39  36  87 NW14G20   29.57F WCI  31
DES MOINES     CLOUDY    39  33  79 NW14      29.58R WCI  31
GRINNELL*      CLOUDY    37  34  86 NW15G21   29.55R WCI  28
KNOXVILLE *    CLOUDY    39  34  81 NW14G21   29.55S WCI  31
MARSHALLTOWN   CLOUDY    36  33  89 NW18      29.54F WCI  26
NEWTON *       CLOUDY    37  34  87 NW15G21   29.55S WCI  28
PELLA *        CLOUDY    39  34  81 NW12G21   29.57S WCI  32
PERRY *        CLOUDY    36  34  94 NW9       29.59F WCI  29
$$

IAZ004>006-015-016-023>025-035-036-270900-
   NORTH CENTRAL IOWA

CITY           SKY/WX    TMP DP  RH WIND       PRES   REMARKS
CLARION *      CLOUDY    34  34 100 NW15G21   29.57S WCI  24
ESTHERVILLE    CLOUDY    30  28  92 NW20      29.58F WCI  17
FORT DODGE *   CLOUDY    34  27  75 NW8       29.59F WCI  27
MASON CITY     CLOUDY    34  32  92 NW14      29.56F WCI  25
IOWA FALLS *   CLOUDY    35  33  91 NW16      29.56F WCI  25
$$

IAZ007>011-017>019-026>030-037>042-050>054-066-270900-
   NORTHEAST IOWA

CITY           SKY/WX    TMP DP  RH WIND       PRES   REMARKS
CEDAR RAPIDS   LGT RAIN  38  37  97 NW20      29.48S WCI  28
CHARLES CITY * CLOUDY    37  36  93 NW16      29.51S WCI  28
CLINTON *      RAIN      42  41  96 NW16      29.45S
DECORAH *      CLOUDY    37  34  87 N13G20    29.46F WCI  29
DUBUQUE        RAIN      39  38  96 N13       29.43F FOG     WCI  31
MONTICELLO *   RAIN      39  39 100 NW10      29.46R WCI  32
OELWEIN *      CLOUDY    39  37  93 NW18      29.49S WCI  30
WATERLOO       CLOUDY    38  32  79 NW12      29.50F WCI  30
$$

IAZ064-065-067-068-078-270900-
   EAST CENTRAL IOWA

CITY           SKY/WX    TMP DP  RH WIND       PRES   REMARKS
DAVENPORT      RAIN      42  40  92 W14       29.47S FOG
IOWA CITY      LGT RAIN  41  38  89 NW10      29.52R
MT. PLEASANT * HVY RAIN  39  38  95 NW14      29.53F WCI  31
MUSCATINE *    RAIN      41  39  93 W14       29.52S
QUAD CITIES    RAIN      43  40  89 NW14G24   29.46S FOG
$$

IAZ062-063-075>077-085>089-095>099-270900-
   SOUTHEAST IOWA

CITY           SKY/WX    TMP DP  RH WIND       PRES   REMARKS
BURLINGTON     LGT RAIN  41  40  96 NW15G26   29.50F
FAIRFIELD *    CLOUDY    41  37  87 W9G16     29.54S
KEOKUK *       LGT RAIN  41  41 100 NW9       29.52F
CENTERVILLE *  CLOUDY    39  37  93 W13       29.58R WCI  32
OTTUMWA        CLOUDY    40  37  89 NW14      29.55R WCI  32
WASHINGTON *   LGT RAIN  39  39 100 NW8       29.54R WCI  34
$$

ABBREVIATIONS USED IN REMARKS
   TC - TEMPERATURES IN CELSIUS
  WCI - WIND CHILL INDEX
   HX - HEAT INDEX
  VSB - VISIBILITY
$$





USA.gov is the U.S. government's official web portal to all federal, state and local government web resources and services.